OPS 4682 DEB, 19242

Orbit data source: Space-Track

OPS 4682 DEB, 19242 is space debris in LEO originally from a launch on Sat, 03 Apr 1965 UTC launched from the Air Force Western Test Range (AFWTR). Debris objects in space refer to the collection of defunct objects orbiting the Earth. Examples of debris include non-operational satellites, rocket bodies, and fragments generated from explosions, collisions, or faulty payload assembly.

Loading next visibility...
Identifier
19242, 1965-027AS
Orbit
LEO
Country
Flag of USUS
Related business
Manufacturer
Unknown
Mission
Spacecraft
Bus & Motor
Unknown
Mass
Unknown
Launch date (UTC)
1965-04-03 (61 years ago)
Launch vehicle
Unknown
Launch site
Air Force Western Test Range (AFWTR)
Object type
Payload
Rocket body
Debris
Shape & HBR
Unknown shape, 0.1 m
Radar Cross Section
Small (<0.1 m²)

Expand to show TLE details & history
Last TLE update: 1 day ago

TLE from 1 day ago
0 OPS 4682 DEB
1 19242U 65027AS  26103.24303205  .00000089  00000-0  26415-3 0  9997
2 19242  90.2667  24.4951 0026984 286.5583 227.1876 13.01717144628874
Epoch: 2026-04-13T05:49Z
TLE epoch observation values (Epoch: 2026-04-13T05:49:57.969Z)
Latitude
26.51182°
Longitude
-84.3005°
Altitude
1,272.627 km
Speed
7.215 km/s
True Right ascension
13h 38m 30s
True Declination
26° 23' 02"
Sunlit
Object was in full shadow at epoch
Visualization orbit readout
Latitude
Unknown
Longitude
Unknown
Altitude
Unknown
Speed
Unknown
Apparent Right ascension
Unknown
Apparent Declination
Unknown
Sunlit
N/A
Visualization observer readout
Local Sidereal Time
15:44:58
Azimuth
Unknown
Elevation
Unknown
Doppler factor
Unknown
Orbital elements
Apogee altitude
1,273.081 km
Perigee altitude
1,231.9 km
Semi-major axis
7,630.628 km
Eccentricity
0.0027
Inclination
90.2667°
RAAN
24.4951°
Arg. of periapsis
286.5583°
True anomaly
226.96129°
Mean anomaly
227.1876°
Eccentric anomaly
227.07439°
Mean motion
3.25614 °/min
Orbital period
110.56 mins
BSTAR
0.00026415
Loading maneuver chart data...
Computing Atmospheric mass density...
Loading historical data...
Loading historical data...
Loading historical data...
Loading historical data...
Loading historical data...
Loading historical data...
Loading historical data...

Documentation

Showing up to 5 results
|